Location: Kalberh�ni
(46.4610°N, 7.2453°E)
Time: 05:21:13
(UTC+00:00)

Cosmos 2333 Rocket - Pass Details

Date: 25 October 2021
Orbit: 837 x 865 km, 70.8° (Epoch: 05 December)

Event Time Altitude Azimuth Distance (km) Brightness Sun altitude
Rises 19:52:18 0° 232° (SW) 3,391 5.7 -35.6°
Reaches altitude 10° 19:54:55 10° 240° (WSW) 2,463 5.0 -36.0°
Enters shadow 19:59:15 35° 287° (WNW) 1,349 3.6 -36.7°
